User: anonymous   Login
Location: Vallejo Observatory
(38.1221°N, 122.2109°W)
Time: 14:42:20
(UTC-07:00)
Language:

MOS 1 Rocket - Orbit

View from above orbital plane
View from above orbital plane
View from above satellite
View from above satellite

Ground track
Ground track

The orbit data is extracted from the following two-line orbital elements,

1 17528U 87018B   16211.57360381  .00000024  00000-0  15015-4 0  9993
2 17528  97.4080 200.1122 0151412 228.5417 242.5189 14.50672683553101
Epoch (UTC): 29 July 2016 13:45:59
Eccentricity: 0.0151412
inclination: 97.4080°
perigee height: 616 km
apogee height: 831 km
right ascension of ascending node: 200.1122°
argument of perigee: 228.5417°
revolutions per day: 14.50672683
mean anomaly at epoch: 242.5189°
orbit number at epoch: 55310

The dashed part of the orbit path shows where the satellite is in the earth's shadow,  

DLR